H1 CPF 2 NER 2024 2 1 9 032 01 glonass147 H2 2311401 9147 57517 2024 2 1 0 0 0 2024 2 4 23 45 0 900 1 1 0 0 0 1 H9 10 0 60341 0.00000 0 9670889.611 -15022007.268 -18174285.859 10 0 60341 900.00000 0 11437705.977 -16190630.511 -16018100.062 10 0 60341 1800.00000 0 12879402.694 -17324077.382 -13549976.306 10 0 60341 2700.00000 0 13982715.162 -18361548.066 -10818004.285 10 0 60341 3600.00000 0 14747491.946 -19242841.854 -7875412.155 10 0 60341 4500.00000 0 15186446.079 -19910980.895 -4779519.924 10 0 60341 5400.00000 0 15324371.500 -20314714.848 -1590612.664 10 0 60341 6300.00000 0 15196859.589 -20410799.832 1629243.438 10 0 60341 7200.00000 0 14848571.893 -20165954.778 4817417.994 10 0 60341 8100.00000 0 14331144.002 -19558412.238 7911941.547 10 0 60341 9000.00000 0 13700810.906 -18578998.102 10852714.213 10 0 60341 9900.00000 0 13015855.652 -17231694.921 13582673.717 10 0 60341 10800.00000 0 12333990.138 -15533665.450 16048899.917 10 0 60341 11700.00000 0 11709779.155 -13514735.882 18203634.626 10 0 60341 12600.00000 0 11192216.396 -11216360.861 20005197.513 10 0 60341 13500.00000 0 10822554.130 -8690113.802 21418781.371 10 0 60341 14400.00000 0 10632477.107 -5995765.555 22417112.614 10 0 60341 15300.00000 0 10642696.446 -3199031.071 22980965.585 10 0 60341 16200.00000 0 10862021.460 -369077.072 23099522.131 10 0 60341 17100.00000 0 11286947.410 2424106.977 22770570.735 10 0 60341 18000.00000 0 11901775.719 5112366.934 22000542.286 10 0 60341 18900.00000 0 12679261.258 7631962.641 20804382.367 10 0 60341 19800.00000 0 13581759.612 9925962.102 19205262.700 10 0 60341 20700.00000 0 14562826.678 11946353.694 17234137.050 10 0 60341 21600.00000 0 15569204.300 13655790.470 14929149.535 10 0 60341 22500.00000 0 16543109.652 15028895.498 12334905.850 10 0 60341 23400.00000 0 17424733.299 16053075.076 9501620.423 10 0 60341 24300.00000 0 18154841.957 16728806.701 6484154.856 10 0 60341 25200.00000 0 18677377.258 17069390.288 3340965.166 10 0 60341 26100.00000 0 18941941.533 17100173.202 132977.338 10 0 60341 27000.00000 0 18906065.895 16857281.609 -3077587.716 10 0 60341 27900.00000 0 18537164.527 16385911.289 -6228417.431 10 0 60341 28800.00000 0 17814091.862 15738249.596 -9258315.855 10 0 60341 29700.00000 0 16728235.637 14971115.969 -12108393.379 10 0 60341 30600.00000 0 15284098.035 14143420.383 -14723214.536 10 0 60341 31500.00000 0 13499338.536 13313547.081 -17051881.105 10 0 60341 32400.00000 0 11404274.604 12536774.272 -19049028.963 10 0 60341 33300.00000 0 9040859.134 11862839.124 -20675718.763 10 0 60341 34200.00000 0 6461175.686 11333751.458 -21900202.535 10 0 60341 35100.00000 0 3725512.819 10981949.115 -22698550.750 10 0 60341 36000.00000 0 900096.700 10828873.635 -23055127.134 10 0 60341 36900.00000 0 -1945424.326 10884027.142 -22962901.441 10 0 60341 37800.00000 0 -4740638.930 11144551.015 -22423593.603 10 0 60341 38700.00000 0 -7417065.294 11595344.792 -21447645.951 10 0 60341 39600.00000 0 -9910764.769 12209720.808 -20054023.604 10 0 60341 40500.00000 0 -12164767.776 12950567.233 -18269846.516 10 0 60341 41400.00000 0 -14131210.757 13771970.465 -16129860.107 10 0 60341 42300.00000 0 -15773095.060 14621228.113 -13675754.711 10 0 60341 43200.00000 0 -17065594.535 15441167.000 -10955347.241 10 0 60341 44100.00000 0 -17996857.774 16172667.433 -8021641.418 10 0 60341 45000.00000 0 -18568272.314 16757286.093 -4931785.538 10 0 60341 45900.00000 0 -18794181.076 17139865.560 -1745948.998 10 0 60341 46800.00000 0 -18701064.656 17271019.145 1473859.521 10 0 60341 47700.00000 0 -18326225.759 17109385.062 4665008.006 10 0 60341 48600.00000 0 -17716033.243 16623554.038 7765466.482 10 0 60341 49500.00000 0 -16923801.713 15793588.558 10715017.076 10 0 60341 50400.00000 0 -16007397.796 14612069.556 13456424.563 10 0 60341 51300.00000 0 -15026675.377 13084626.582 15936544.482 10 0 60341 52200.00000 0 -14040848.699 11229929.388 18107347.471 10 0 60341 53100.00000 0 -13105914.300 9079141.582 19926840.553 10 0 60341 54000.00000 0 -12272229.986 6674859.440 21359868.528 10 0 60341 54900.00000 0 -11582351.900 4069580.135 22378781.187 10 0 60341 55800.00000 0 -11069219.428 1323762.994 22963954.851 10 0 60341 56700.00000 0 -10754762.800 -1496436.256 23104159.518 10 0 60341 57600.00000 0 -10648990.416 -4321665.145 22796765.798 10 0 60341 58500.00000 0 -10749592.985 -7082005.646 22047788.564 10 0 60341 59400.00000 0 -11042080.113 -9709629.397 20871767.101 10 0 60341 60300.00000 0 -11500443.109 -12141368.667 19291484.220 10 0 60341 61200.00000 0 -12088316.106 -14321098.200 17337529.535 10 0 60341 62100.00000 0 -12760587.082 -16201830.796 15047714.720 10 0 60341 63000.00000 0 -13465391.777 -17747441.056 12466351.127 10 0 60341 63900.00000 0 -14146407.554 -18933946.700 9643402.655 10 0 60341 64800.00000 0 -14745351.584 -19750294.919 6633529.120 10 0 60341 65700.00000 0 -15204578.960 -20198621.414 3495037.514 10 0 60341 66600.00000 0 -15469671.781 -20293971.411 288760.590 10 0 60341 67500.00000 0 -15491910.164 -20063494.279 -2923116.204 10 0 60341 68400.00000 0 -15230520.667 -19545145.278 -6078257.161 10 0 60341 69300.00000 0 -14654606.469 -18785948.637 -9115384.871 10 0 60341 70200.00000 0 -13744676.662 -17839894.722 -11975471.398 10 0 60341 71100.00000 0 -12493708.558 -16765559.562 -14602888.630 10 0 60341 72000.00000 0 -10907696.296 -15623546.919 -16946495.027 10 0 60341 72900.00000 0 -9005660.601 -14473860.714 -18960637.118 10 0 60341 73800.00000 0 -6819117.048 -13373318.775 -20606045.743 10 0 60341 74700.00000 0 -4391023.062 -12373117.229 -21850609.043 10 0 60341 75600.00000 0 -1774245.857 -11516648.658 -22670006.610 10 0 60341 76500.00000 0 970386.307 -10837666.450 -23048191.948 10 0 60341 77400.00000 0 3776369.378 -10358873.252 -22977713.305 10 0 60341 78300.00000 0 6574050.880 -10090993.492 -22459866.143 10 0 60341 79200.00000 0 9293294.566 -10032369.459 -21504673.755 10 0 60341 80100.00000 0 11866171.504 -10169098.227 -20130695.941 10 0 60341 81000.00000 0 14229565.421 -10475703.715 -18364669.099 10 0 60341 81900.00000 0 16327583.551 -10916315.321 -16240984.442 10 0 60341 82800.00000 0 18113672.187 -11446302.942 -13801014.441 10 0 60341 83700.00000 0 19552348.598 -12014298.578 -11092300.764 10 0 60341 84600.00000 0 20620477.081 -12564518.125 -8167619.898 10 0 60341 85500.00000 0 21308036.263 -13039284.023 -5083945.360 10 0 60342 0.00000 0 21618346.448 -13381640.776 -1901327.870 10 0 60342 900.00000 0 21567748.832 -13537951.629 1318285.361 10 0 60342 1800.00000 0 21184751.440 -13460364.944 4512263.802 10 0 60342 2700.00000 0 20508680.053 -13109045.713 7618520.231 10 0 60342 3600.00000 0 19587892.365 -12454076.710 10576721.811 10 0 60342 4500.00000 0 18477632.535 -11476948.885 13329463.087 10 0 60342 5400.00000 0 17237617.946 -10171577.990 15823377.610 10 0 60342 6300.00000 0 15929460.757 -8544804.752 18010166.768 10 0 60342 7200.00000 0 14614033.239 -6616357.744 19847526.445 10 0 60342 8100.00000 0 13348887.563 -4418280.646 21299954.528 10 0 60342 9000.00000 0 12185837.744 -1993847.835 22339424.863 10 0 60342 9900.00000 0 11168804.113 603986.670 22945916.021 10 0 60342 10800.00000 0 10332009.245 3314542.905 23107786.031 10 0 60342 11700.00000 0 9698599.314 6071690.963 22821987.123 10 0 60342 12600.00000 0 9279747.043 8806356.036 22094117.293 10 0 60342 13500.00000 0 9074272.410 11449150.034 20938308.315 10 0 60342 14400.00000 0 9068795.909 13933022.360 19376952.568 10 0 60342 15300.00000 0 9238417.279 16195821.541 17440273.723 10 0 60342 16200.00000 0 9547891.005 18182663.079 15165748.977 10 0 60342 17100.00000 0 9953249.379 19848006.591 12597393.102 10 0 60342 18000.00000 0 10403805.401 21157356.973 9784917.050 10 0 60342 18900.00000 0 10844451.895 22088519.542 6782776.294 10 0 60342 19800.00000 0 11218160.663 22632357.226 3649126.140 10 0 60342 20700.00000 0 11468576.856 22793018.236 444703.401 10 0 60342 21600.00000 0 11542599.373 22587624.512 -2768344.642 10 0 60342 22500.00000 0 11392838.230 22045433.623 -5927661.746 10 0 60342 23400.00000 0 10979844.610 21206508.775 -8971891.493 10 0 60342 24300.00000 0 10274018.406 20119952.287 -11841869.839 10 0 60342 25200.00000 0 9257111.334 18841776.346 -14481777.995 10 0 60342 26100.00000 0 7923260.414 17432500.253 -16840232.787 10 0 60342 27000.00000 0 6279506.221 15954575.053 -18871292.814 10 0 60342 27900.00000 0 4345771.875 14469743.892 -20535360.280 10 0 60342 28800.00000 0 2154301.420 13036449.275 -21799960.384 10 0 60342 29700.00000 0 -251420.971 11707396.522 -22640382.568 10 0 60342 30600.00000 0 -2818227.620 10527376.226 -23040170.615 10 0 60342 31500.00000 0 -5485236.270 9531437.642 -22991451.508 10 0 60342 32400.00000 0 -8186150.264 8743490.097 -22495096.165 10 0 60342 33300.00000 0 -10851794.803 8175391.490 -21560708.398 10 0 60342 34200.00000 0 -13412783.858 7826562.261 -20206441.864 10 0 60342 35100.00000 0 -15802206.599 7684140.955 -18458648.177 10 0 60342 36000.00000 0 -17958221.116 7723674.419 -16351362.758 10 0 60342 36900.00000 0 -19826446.850 7910312.886 -13925638.340 10 0 60342 37800.00000 0 -21362055.511 8200458.576 -11228739.258 10 0 60342 38700.00000 0 -22531472.943 8543797.037 -8313212.548 10 0 60342 39600.00000 0 -23313620.760 8885624.004 -5235854.662 10 0 60342 40500.00000 0 -23700646.250 9169367.894 -2056594.767 10 0 60342 41400.00000 0 -23698110.750 9339199.750 1162682.559 10 0 60342 42300.00000 0 -23324629.857 9342618.791 4359351.142 10 0 60342 43200.00000 0 -22610982.136 9132903.010 7471268.830 10 0 60342 44100.00000 0 -21598725.518 8671320.266 10437990.150 10 0 60342 45000.00000 0 -20338381.309 7929005.845 13201941.728 10 0 60342 45900.00000 0 -18887263.716 6888426.963 15709537.387 10 0 60342 46800.00000 0 -17307047.315 5544372.437 17912211.419 10 0 60342 47700.00000 0 -15661175.363 3904426.012 19767350.549 10 0 60342 48600.00000 0 -14012217.888 1988903.577 21239107.491 10 0 60342 49500.00000 0 -12419289.854 -169743.048 22299081.585 10 0 60342 50400.00000 0 -10935636.625 -2528031.000 22926854.746 10 0 60342 51300.00000 0 -9606486.340 -5033014.316 23110373.759 10 0 60342 52200.00000 0 -8467257.332 -7624250.423 22846172.815 10 0 60342 53100.00000 0 -7542193.736 -10236084.518 22139432.979 10 0 60342 54000.00000 0 -6843484.571 -12800158.302 21003878.087 10 0 60342 54900.00000 0 -6370901.600 -15248040.541 19461509.278 10 0 60342 55800.00000 0 -6111969.965 -17513871.840 17542183.115 10 0 60342 56700.00000 0 -6042663.650 -19536915.409 15283040.826 10 0 60342 57600.00000 0 -6128596.284 -21263909.255 12727798.801 10 0 60342 58500.00000 0 -6326657.301 -22651123.024 9925913.020 10 0 60342 59400.00000 0 -6587024.989 -23666034.630 6931632.367 10 0 60342 60300.00000 0 -6855472.120 -24288557.115 3802958.086 10 0 60342 61200.00000 0 -7075867.435 -24511764.499 600528.571 10 0 60342 62100.00000 0 -7192767.746 -24342085.955 -2613549.620 10 0 60342 63000.00000 0 -7153991.205 -23798959.633 -5776902.334 10 0 60342 63900.00000 0 -6913062.726 -22913959.932 -8828096.814 10 0 60342 64800.00000 0 -6431427.453 -21729434.131 -11707835.608 10 0 60342 65700.00000 0 -5680337.619 -20296704.880 -14360111.935 10 0 60342 66600.00000 0 -4642331.558 -18673913.492 -16733303.604 10 0 60342 67500.00000 0 -3312240.615 -16923594.170 -18781183.740 10 0 60342 68400.00000 0 -1697679.396 -15110080.801 -20463828.111 10 0 60342 69300.00000 0 181003.466 -13296855.138 -21748400.848 10 0 60342 70200.00000 0 2291314.174 -11543947.723 -22609802.711 10 0 60342 71100.00000 0 4589719.619 -9905500.813 -23031168.780 10 0 60342 72000.00000 0 7023225.703 -8427595.750 -23004205.341 10 0 60342 72900.00000 0 9531363.556 -7146436.151 -22529358.889 10 0 60342 73800.00000 0 12048501.687 -6086963.219 -21615813.469 10 0 60342 74700.00000 0 14506388.089 -5261961.295 -20281315.918 10 0 60342 75600.00000 0 16836816.394 -4671690.946 -18551832.019 10 0 60342 76500.00000 0 18974304.583 -4304064.498 -16461039.976 10 0 60342 77400.00000 0 20858673.993 -4135355.850 -14049670.977 10 0 60342 78300.00000 0 22437420.334 -4131413.567 -11364709.808 10 0 60342 79200.00000 0 23667777.108 -4249324.760 -8458471.461 10 0 60342 80100.00000 0 24518384.733 -4439457.942 -5387572.364 10 0 60342 81000.00000 0 24970495.476 -4647796.845 -2211817.190 10 0 60342 81900.00000 0 25018664.033 -4818464.810 1006976.097 10 0 60342 82800.00000 0 24670895.573 -4896331.302 4206188.854 10 0 60342 83700.00000 0 23948246.188 -4829588.849 7323627.374 10 0 60342 84600.00000 0 22883893.937 -4572190.225 10298736.728 10 0 60342 85500.00000 0 21521721.079 -4086042.039 13073778.512 10 0 60343 0.00000 0 19914468.670 -3342861.670 15594949.149 10 0 60343 900.00000 0 18121541.355 -2325618.625 17813418.442 10 0 60343 1800.00000 0 16206557.506 -1029500.690 19686265.480 10 0 60343 2700.00000 0 14234744.863 537636.858 21177299.162 10 0 60343 3600.00000 0 12270292.583 2355356.808 22257745.295 10 0 60343 4500.00000 0 10373768.835 4391257.108 22906789.718 10 0 60343 5400.00000 0 8599710.692 6602093.938 23111968.142 10 0 60343 6300.00000 0 6994485.246 8935364.505 22869396.485 10 0 60343 7200.00000 0 5594509.339 11331284.565 22183838.227 10 0 60343 8100.00000 0 4424900.217 13725079.600 21068608.190 10 0 60343 9000.00000 0 3498611.605 16049495.879 19545314.812 10 0 60343 9900.00000 0 2816089.695 18237428.544 17643445.719 10 0 60343 10800.00000 0 2365462.227 20224559.020 15399804.015 10 0 60343 11700.00000 0 2123251.908 21951893.463 12857805.305 10 0 60343 12600.00000 0 2055583.890 23368097.664 10066647.948 10 0 60343 13500.00000 0 2119836.534 24431531.881 7080371.442 10 0 60343 14400.00000 0 2266666.192 25111901.081 3956820.045 10 0 60343 15300.00000 0 2442321.080 25391451.605 756530.740 10 0 60343 16200.00000 0 2591146.869 25265663.793 -2458433.611 10 0 60343 17100.00000 0 2658178.365 24743410.895 -5625683.822 10 0 60343 18000.00000 0 2591707.613 23846576.707 -8683713.512 10 0 60343 18900.00000 0 2345719.380 22609146.967 -11573094.297 10 0 60343 19800.00000 0 1882090.200 21075811.668 -14237633.583 10 0 60343 20700.00000 0 1172456.785 19300136.001 -16625472.030 10 0 60343 21600.00000 0 199673.305 17342375.969 -18690098.843 10 0 60343 22500.00000 0 -1041205.831 15267029.699 -20391264.609 10 0 60343 23400.00000 0 -2542461.180 13140226.795 -21695773.355 10 0 60343 24300.00000 0 -4283783.135 11027064.982 -22578137.836 10 0 60343 25200.00000 0 -6232885.406 8989005.559 -23021084.828 10 0 60343 26100.00000 0 -8346633.254 7081436.856 -23015899.978 10 0 60343 27000.00000 0 -10572640.809 5351507.773 -22562605.066 10 0 60343 27900.00000 0 -12851271.831 3836322.186 -21669963.665 10 0 60343 28800.00000 0 -15117961.016 2561569.755 -20355314.664 10 0 60343 29700.00000 0 -17305759.123 1540650.271 -18644236.466 10 0 60343 30600.00000 0 -19347995.497 774327.710 -16570048.134 10 0 60343 31500.00000 0 -21180946.220 250927.725 -14173157.079 10 0 60343 32400.00000 0 -22746395.699 -52930.885 -11500266.097 10 0 60343 33300.00000 0 -23993983.760 -171102.930 -8603455.551 10 0 60343 34200.00000 0 -24883239.308 -146235.492 -5539159.226 10 0 60343 35100.00000 0 -25385214.899 -27711.302 -2367054.664 10 0 60343 36000.00000 0 -25483653.572 130694.395 851109.388 10 0 60343 36900.00000 0 -25175639.261 273342.509 4052724.377 10 0 60343 37800.00000 0 -24471704.177 345335.729 7175547.559 10 0 60343 38700.00000 0 -23395389.681 295089.446 10158916.992 10 0 60343 39600.00000 0 -21982280.365 76758.231 12944931.590 10 0 60343 40500.00000 0 -20278553.176 -347585.315 15479573.000 10 0 60343 41400.00000 0 -18339103.666 -1006111.600 17713747.630 10 0 60343 42300.00000 0 -16225328.814 -1915812.467 19604229.119 10 0 60343 43200.00000 0 -14002659.715 -3081556.618 21114483.945 10 0 60343 44100.00000 0 -11737947.248 -4495661.474 22215365.383 10 0 60343 45000.00000 0 -9496809.355 -6137999.220 22885663.790 10 0 60343 45900.00000 0 -7341049.421 -7976632.638 23112504.002 10 0 60343 46800.00000 0 -5326251.818 -9968954.476 22891583.457 10 0 60343 47700.00000 0 -3499652.901 -12063283.481 22227247.490 10 0 60343 48600.00000 0 -1898374.108 -14200851.540 21132401.019 10 0 60343 49500.00000 0 -548088.736 -16318100.465 19628258.588 10 0 60343 50400.00000 0 537823.849 -18349194.191 17743937.415 10 0 60343 51300.00000 0 1358602.821 -20228643.273 15515900.771 10 0 60343 52200.00000 0 1925896.960 -21893933.774 12987261.520 10 0 60343 53100.00000 0 2263031.655 -23288052.051 10206958.259 10 0 60343 54000.00000 0 2403783.004 -24361800.998 7228818.810 10 0 60343 54900.00000 0 2390710.549 -25075811.375 4110528.040 10 0 60343 55800.00000 0 2273118.708 -25402164.135 912519.071 10 0 60343 56700.00000 0 2104732.566 -25325555.411 -2303191.412 10 0 60343 57600.00000 0 1941185.976 -24843954.573 -5474201.670 10 0 60343 58500.00000 0 1837428.045 -23968726.704 -8538934.156 10 0 60343 59400.00000 0 1845157.925 -22724213.141 -11437831.974 10 0 60343 60300.00000 0 2010396.938 -21146786.401 -14114519.086 10 0 60343 61200.00000 0 2371301.617 -19283417.914 -16516901.263 10 0 60343 62100.00000 0 2956311.374 -17189817.540 -18598185.883 10 0 60343 63000.00000 0 3782710.561 -14928221.916 -20317800.210 10 0 60343 63900.00000 0 4855667.413 -12564923.653 -21642189.711 10 0 60343 64800.00000 0 6167792.283 -10167644.327 -22545480.331 10 0 60343 65700.00000 0 7699235.713 -7802860.889 -23009991.316 10 0 60343 66600.00000 0 9418324.087 -5533197.239 -23026588.062 10 0 60343 67500.00000 0 11282707.809 -3414989.942 -22594867.611 10 0 60343 68400.00000 0 13240975.182 -1496129.849 -21723172.684 10 0 60343 69300.00000 0 15234665.292 185730.203 -20428433.485 10 0 60343 70200.00000 0 17200596.050 1604526.868 -18735839.983 10 0 60343 71100.00000 0 19073409.978 2746640.825 -16678350.712 10 0 60343 72000.00000 0 20788230.752 3611219.283 -14296047.573 10 0 60343 72900.00000 0 22283318.556 4209954.000 -11635349.295 10 0 60343 73800.00000 0 23502612.175 4566325.551 -8748099.196 10 0 60343 74700.00000 0 24398050.303 4714347.316 -5690545.681 10 0 60343 75600.00000 0 24931573.964 4696864.077 -2522236.183 10 0 60343 76500.00000 0 25076725.482 4563479.023 695152.903 10 0 60343 77400.00000 0 24819776.690 4368198.783 3899026.311 10 0 60343 78300.00000 0 24160339.222 4166897.900 7027095.374 10 0 60343 79200.00000 0 23111431.879 4014711.615 10018594.105 10 0 60343 80100.00000 0 21699003.095 3963468.430 12815461.461 10 0 60343 81000.00000 0 19960929.647 4059271.803 15363466.537 10 0 60343 81900.00000 0 17945534.579 4340333.539 17613254.911 10 0 60343 82800.00000 0 15709687.345 4835150.243 19521296.333 10 0 60343 83700.00000 0 13316566.164 5561099.438 21050716.321 10 0 60343 84600.00000 0 10833176.156 6523513.939 22171996.749 10 0 60343 85500.00000 0 8327726.395 7715272.951 22863533.285 10 0 60344 0.00000 0 5866974.437 9116926.593 23112040.300 10 0 60344 900.00000 0 3513646.131 10697349.402 22912796.820 10 0 60344 1800.00000 0 1324039.549 12414893.895 22269729.586 10 0 60344 2700.00000 0 -654093.719 14218999.135 21195332.756 10 0 60344 3600.00000 0 -2383300.587 16052186.406 19710425.679 10 0 60344 4500.00000 0 -3837742.172 17852360.641 17843753.453 10 0 60344 5400.00000 0 -5004019.953 19555322.883 15631437.418 10 0 60344 6300.00000 0 -5881479.339 21097390.281 13116285.305 10 0 60344 7200.00000 0 -6481979.010 22418015.429 10346973.309 10 0 60344 8100.00000 0 -6829136.364 23462296.476 7377114.755 10 0 60344 9000.00000 0 -6957081.014 24183273.563 4264232.186 10 0 60344 9900.00000 0 -6908768.748 24543915.499 1068651.863 10 0 60344 10800.00000 0 -6733926.831 24518713.059 -2147658.707 10 0 60344 11700.00000 0 -6486717.055 24094811.301 -5322288.179 10 0 60344 12600.00000 0 -6223215.151 23272632.239 -8393590.653 10 0 60344 13500.00000 0 -5998813.079 22065960.377 -11301883.351 10 0 60344 14400.00000 0 -5865654.372 20501485.986 -13990609.162 10 0 60344 15300.00000 0 -5870211.575 18617823.766 -16407441.048 10 0 60344 16200.00000 0 -6051109.104 16464046.597 -18505306.324 10 0 60344 17100.00000 0 -6437284.754 14097794.530 -20243310.380 10 0 60344 18000.00000 0 -7046568.899 11583037.178 -21587541.258 10 0 60344 18900.00000 0 -7884742.978 8987582.290 -22511738.901 10 0 60344 19800.00000 0 -8945118.631 6380434.111 -22997815.515 10 0 60344 20700.00000 0 -10208656.864 3829111.570 -23036216.366 10 0 60344 21600.00000 0 -11644623.802 1397038.089 -22626113.500 10 0 60344 22500.00000 0 -13211756.756 -858888.108 -21775428.086 10 0 60344 23400.00000 0 -14859892.627 -2890441.786 -20500680.516 10 0 60344 24300.00000 0 -16531990.860 -4659847.044 -18826670.733 10 0 60344 25200.00000 0 -18166466.246 -6141108.332 -16785994.754 10 0 60344 26100.00000 0 -19699733.388 -7320840.966 -14418406.638 10 0 60344 27000.00000 0 -21068855.452 -8198567.305 -11770038.449 10 0 60344 27900.00000 0 -22214185.123 -8786467.381 -8892493.691 10 0 60344 28800.00000 0 -23081885.835 -9108596.034 -5841832.529 10 0 60344 29700.00000 0 -23626226.348 -9199601.372 -2677469.392 10 0 60344 30600.00000 0 -23811551.440 -9103000.610 538994.561 10 0 60344 31500.00000 0 -23613845.259 -8869088.157 3744980.181 10 0 60344 32400.00000 0 -23021821.469 -8552566.337 6878155.658 10 0 60344 33300.00000 0 -22037494.510 -8210000.687 9877653.624 10 0 60344 34200.00000 0 -20676208.505 -7897208.856 12685255.605 10 0 60344 35100.00000 0 -18966123.319 -7666694.479 15246520.463 10 0 60344 36000.00000 0 -16947180.169 -7565234.947 17511834.997 10 0 60344 36900.00000 0 -14669590.841 -7631724.977 19437366.779 10 0 60344 37800.00000 0 -12191914.251 -7895366.546 20985901.672 10 0 60344 38700.00000 0 -9578800.789 -8374280.854 22127551.032 10 0 60344 39600.00000 0 -6898498.223 -9074599.951 22840316.257 10 0 60344 40500.00000 0 -4220222.222 -9990075.537 23110501.245 10 0 60344 41400.00000 0 -1611499.555 -11102220.909 22932966.103 10 0 60344 42300.00000 0 864407.240 -12380979.956 22311218.271 10 0 60344 43200.00000 0 3150888.705 -13785895.463 21257340.048 10 0 60344 44100.00000 0 5200093.669 -15267728.524 19791754.205 10 0 60344 45000.00000 0 6974665.332 -16770462.271 17942832.080 10 0 60344 45900.00000 0 8449037.918 -18233607.384 15746351.211 10 0 60344 46800.00000 0 9610241.468 -19594714.229 13244812.086 10 0 60344 47700.00000 0 10458182.418 -20791987.711 10486626.178 10 0 60344 48600.00000 0 11005389.121 -21766896.395 7525189.796 10 0 60344 49500.00000 0 11276233.418 -22466667.209 4417860.495 10 0 60344 50400.00000 0 11305661.119 -22846561.341 1224854.921 10 0 60344 51300.00000 0 11137484.695 -22871835.600 -1991911.377 10 0 60344 52200.00000 0 10822309.917 -22519306.166 -5170020.181 10 0 60344 53100.00000 0 10415183.705 -21778447.903 -8247759.892 10 0 60344 54000.00000 0 9973062.384 -20651981.629 -11165324.354 10 0 60344 54900.00000 0 9552207.435 -19155922.975 -13865977.730 10 0 60344 55800.00000 0 9205619.115 -17319089.014 -16297162.309 10 0 60344 56700.00000 0 8980617.031 -15182081.610 -18411527.241 10 0 60344 57600.00000 0 8916670.749 -12795788.462 -20167857.641 10 0 60344 58500.00000 0 9043573.136 -10219463.184 -21531885.378 10 0 60344 59400.00000 0 9380034.816 -7518463.591 -22476965.265 10 0 60344 60300.00000 0 9932760.379 -4761741.760 -22984602.922 10 0 60344 61200.00000 0 10696046.659 -2019190.120 -23044823.527 10 0 60344 62100.00000 0 11651921.334 641046.106 -22656373.764 10 0 60344 63000.00000 0 12770817.163 3155178.202 -21826752.528 10 0 60344 63900.00000 0 14012754.394 5466196.234 -20572069.323 10 0 60344 64800.00000 0 15328982.207 7526003.339 -18916732.701 10 0 60344 65700.00000 0 16664010.356 9297173.113 -16892974.496 10 0 60344 66600.00000 0 17957945.384 10754257.011 -14540218.984 10 0 60344 67500.00000 0 19149032.597 11884587.720 -11904309.348 10 0 60344 68400.00000 0 20176296.005 12688545.847 -9036606.800 10 0 60344 69300.00000 0 20982164.070 13179280.060 -5992980.557 10 0 60344 70200.00000 0 21514969.630 13381894.143 -2832709.164 10 0 60344 71100.00000 0 21731217.691 13332137.136 382684.433 10 0 60344 72000.00000 0 21597524.783 13074653.841 3590640.187 10 0 60344 72900.00000 0 21092147.666 12660871.637 6728786.030 10 0 60344 73800.00000 0 20206036.884 12146614.759 9736155.930 10 0 60344 74700.00000 0 18943370.970 11589548.458 12554376.453 10 0 60344 75600.00000 0 17321549.290 11046562.232 15128798.430 10 0 60344 76500.00000 0 15370644.360 10571203.312 17409551.782 10 0 60344 77400.00000 0 13132337.197 10211268.938 19352503.517 10 0 60344 78300.00000 0 10658380.664 10006658.621 20920101.174 10 0 60344 79200.00000 0 8008655.144 9987576.177 22082086.619 10 0 60344 80100.00000 0 5248897.402 10173156.275 22816067.710 10 0 60344 81000.00000 0 2448196.521 10570572.192 23107938.271 10 0 60344 81900.00000 0 -323640.140 11174661.391 22952139.563 10 0 60344 82800.00000 0 -2998743.040 11968083.951 22351759.314 10 0 60344 83700.00000 0 -5513750.193 12922006.961 21318467.162 10 0 60344 84600.00000 0 -7812185.906 13997286.366 19872288.056 10 0 60344 85500.00000 0 -9846551.759 15146097.285 18041217.911 99